sat.trackr.live / text

‹ back to catalog

CELESTIS-17 & SHERPA-FX1

NORAD 47486 · 2021-006CB

PAYLOAD ACTIVE UNKNOWN

§ Identity

Operator
Country
US
Launch date
2021-01-24
Launch site
AFETR
Launch vehicle
Mass (kg)
RCS (m²)

External: N2YO · Heavens-Above · Gunter

§ Orbital elements

Epoch: 2026-09-19T08:37:48.768672Z

Period
93.93 min
Inclination
97.2177°
Eccentricity
0.0005466
Mean motion
15.33028393 rev/d
Perigee alt
463.0 km
Apogee alt
470.5 km
Semi-major
6,844.9 km
B*
1.2000e-4
RAAN
301.1799°
Arg perigee
206.0192°
Mean anomaly
154.0777°
Rev number
31,372

§ Raw data

CELESTIS-17 & SHERPA-FX11 47486U 21006CB  26262.35959223  .00003753  00000+0  12000-3 0  99972 47486  97.2177 301.1799 0005466 206.0192 154.0777 15.33028393313729

JSON: /api/v1/satellites/47486 · /tle

For live sub-satellite position, see the globe view (requires WebGL).

§ Visibility from observer

Set your observer location to see the next 7 days of passes ≥ 10°. The values pass through the URL so the page stays shareable.

No JS? Fill the form by hand. The geolocation button needs JavaScript.